Location: Newark
(24.0228°N, 104.6544°W)
Time: 12:58:41
(UTC+00:00)

Envisat - Visible Passes

Search period start: 24 September 2020 00:00
Search period end: 04 October 2020 00:00
Orbit: 764 x 766 km, 98.1° (Epoch: 23 September)

Date Brightness Start Highest point End Pass type
(mag) Time Alt. Az. Time Alt. Az. Time Alt. Az.
25 Sep 5.9 01:19:22 10° SSW 01:23:16 22° W 01:27:10 10° NW visible
25 Sep 5.9 11:58:33 10° NE 12:02:14 20° E 12:05:54 10° SE visible
27 Sep 6.6 01:47:38 10° WSW 01:48:49 11° W 01:50:01 10° W visible
27 Sep 4.7 12:23:00 10° NNE 12:27:44 39° E 12:32:27 10° SSE visible
28 Sep 5.4 01:07:30 10° SSW 01:11:52 29° W 01:16:16 10° NW visible
28 Sep 6.2 11:47:59 10° ENE 11:50:50 15° E 11:53:39 10° SE visible
30 Sep 6.2 01:34:35 10° SW 01:37:24 15° W 01:40:15 10° WNW visible
30 Sep 5.3 12:11:57 10° NE 12:16:21 29° E 12:20:43 10° SSE visible
01 Oct 6.5 11:38:12 10° E 11:39:24 11° E 11:40:35 10° ESE visible
03 Oct 6.0 01:22:20 10° SW 01:25:59 20° W 01:29:40 10° NW visible
03 Oct 5.8 12:01:03 10° NE 12:04:57 22° E 12:08:51 10° SSE visible
